Погода в Журавке

Россия / Волгоградская область     50°51′30″N   43°51′18″E
темп.,
°C
ветер,
м/с
пор.,
м/с
влажн.,
%
обл.,
%
осадки,
мм/ч
давл.,
гПа
погр.,
м
19 сентября, вс
вс1900:00+10в5946100 0.1 1022397
03:00+10вюв51040100 0.1 1021419
06:00+9вюв51240100 0.0 1021361
09:00+13юв71035100 0.0 1021637
12:00+18юв8930100 0.0 10191343
15:00+17юв6933100 0.0 1018940
18:00+17вюв71234100 0.0 1017671
21:00+15вюв81635100 0.0 1017776
20 сентября, пн
пн2000:00+15юв81538100 0.0 1016943
03:00+11юв81677100 3.1 1016699
06:00+9юв81680100 5.6 1015699
09:00+9юв71674100 10.6 1015715
12:00+9вюв71489100 5.8 1015589
15:00+9вюв71287100 7.0 1015552
18:00+10вюв71184100 0.2 1014438
21:00+10вюв61187100 1.1 1014392
21 сентября, вт
вт2100:00+9вюв5109065 0.4 1014271
03:00+8вюв489399 0.5 1013176
06:00+9юв3795100 1.1 1012169
09:00+15ююз46764 1.3 1012496
12:00+17зюз675985 0.4 10111346
15:00+17зюз564734 0.4 10111763
18:00+15зюз3654100 0.0 1011154
21:00+13юз2260100 0.0 101148
22 сентября, ср
ср2200:00+13з2365100 0.0 101198
03:00+12зсз2468100 0.0 1011209
06:00+11зсз2477100 0.0 1011276
09:00+11з347098 0.0 1011664
12:00+13зюз5560100 0.1 10111364
15:00+11з566194 0.2 10121095
18:00+10з356448 0.0 1012458
21:00+8зюз34748 0.0 101364
23 сентября, чт
чт2300:00+7зюз227315 0.0 101324
03:00+7з128217 0.0 101311
06:00+7юв117991 0.0 101315
09:00+9юв2366100 0.0 1013206
12:00+12ю2353100 0.0 10121191
15:00+12ююз3452100 0.0 10111315
18:00+11юз2259100 0.0 101143
21:00+9ююз1263100 0.0 101117